RH
60 65 61 57 58 56 55 56 59 60 58 57 58 54 56 64 58 58 71 64 50 54 55 51 50 47 47 41 28 24 24 24 28 29 29 30 30 34 40 43 43 43 45 51 55 56 57 57 58 60 62 65 65 65 66 68 71 72 73 73 67 60 57 56 58 60 60 60 61 60 61 61 61 61 63 71 80 85 86 86 86 87 86 84 83 81 78
64 69 65 62 58 57 55 57 61 60 59 62 62 57 55 57 57 56 60 62 55 46 44 46 42 35 32 28 25 26 26 26 29 30 30 30 29 32 36 39 41 41 42 45 49 54 56 56 59 62 63 65 65 65 67 69 71 71 72 72 66 61 58 56 57 57 57 58 58 58 59 60 61 63 68 76 81 82 82 82 80 78 76 74 74 72 70
73 71 63 60 61 64 64 64 66 63 61 64 63 60 59 59 60 58 58 65 61 46 43 44 34 28 31 34 34 30 26 27 29 30 31 30 29 30 30 33 37 39 42 43 44 48 47 46 51 58 63 66 66 65 67 68 68 67 67 67 64 61 58 57 56 55 56 57 57 57 60 62 64 66 71 76 78 80 80 78 77 75 72 69 68 66 64
80 69 59 66 70 70 69 67 67 63 61 62 56 55 61 60 56 56 61 65 57 46 46 45 37 34 38 39 37 31 27 27 28 29 29 28 29 29 28 30 33 35 38 40 41 43 41 41 43 48 57 65 67 65 65 65 64 63 63 63 62 61 58 56 55 55 56 56 56 59 61 62 65 69 73 74 75 78 77 73 72 70 67 64 62 61 61
83 75 67 72 74 76 74 66 60 58 60 61 56 55 61 58 51 53 59 55 46 43 47 47 44 44 44 39 32 28 27 25 25 26 25 25 26 27 28 30 31 33 35 34 36 37 38 39 39 39 46 58 66 67 64 62 60 60 61 62 62 61 57 55 55 55 55 55 56 60 61 63 67 70 72 72 72 73 71 67 66 64 61 60 59 60 61
87 88 76 72 77 80 71 58 56 56 53 57 61 59 58 57 55 56 56 50 46 47 49 48 44 42 40 34 27 26 26 24 24 25 24 24 25 25 27 29 30 32 34 33 35 35 36 38 39 39 42 49 59 66 65 60 57 58 60 61 62 60 56 56 56 55 55 56 57 60 62 65 68 69 69 69 68 67 66 64 64 62 60 59 59 60 62
89 88 80 83 86 76 60 56 61 58 53 57 60 60 58 59 61 62 59 55 53 50 47 44 39 34 30 27 26 26 25 24 24 25 23 24 24 24 26 28 29 30 32 33 35 36 38 40 42 45 45 45 54 63 63 58 56 57 57 59 61 61 57 57 57 56 56 56 57 59 62 65 67 66 66 67 65 65 64 63 62 61 60 59 58 59 63
88 87 88 89 81 66 59 60 58 55 56 56 56 61 65 62 61 63 58 52 50 49 45 38 32 32 31 29 28 27 26 25 25 24 24 24 24 24 26 28 28 28 29 31 33 35 38 40 44 48 48 47 54 62 61 57 56 56 53 54 58 60 58 56 57 57 56 55 57 58 60 62 63 63 64 64 63 62 62 61 61 61 60 59 56 55 60
87 93 95 87 77 73 68 60 54 51 50 49 49 56 64 64 62 56 49 47 46 46 43 34 29 34 36 36 35 29 27 28 25 24 25 24 25 27 28 29 30 29 30 31 33 35 37 40 44 48 49 49 54 61 61 57 55 53 51 52 57 59 57 56 55 55 54 54 56 57 57 57 59 60 62 62 61 61 61 61 61 60 59 58 56 54 62
84 91 95 92 91 88 73 62 61 56 50 54 53 50 59 67 57 44 45 50 48 48 46 37 33 35 39 46 46 33 27 28 26 26 28 26 28 30 30 31 32 32 33 33 33 34 36 39 42 46 50 51 52 58 62 58 55 52 51 54 57 57 56 54 53 52 51 52 54 54 54 54 55 57 59 60 60 60 61 61 60 60 59 58 56 56 64
88 92 97 94 89 85 74 67 66 57 52 56 52 52 66 68 46 34 45 51 49 50 47 38 38 41 47 57 53 34 28 30 27 28 30 29 31 31 31 32 32 32 33 33 33 34 34 36 39 44 52 53 50 54 59 58 55 53 53 55 56 55 54 53 51 50 50 52 52 52 52 52 53 55 56 58 59 59 60 60 60 60 59 60 60 59 63
92 93 94 88 81 79 75 69 63 55 46 44 51 67 79 66 44 37 43 42 41 43 41 40 46 48 47 52 46 33 32 33 30 32 33 32 33 33 33 34 34 34 35 33 33 35 34 35 37 41 51 54 51 52 56 57 56 53 53 55 54 53 52 50 50 50 49 51 51 50 50 51 52 54 56 58 59 59 60 60 59 60 60 60 61 62 66
95 94 92 88 83 77 69 64 61 53 45 50 68 81 77 64 55 50 44 35 31 33 37 42 46 41 34 35 36 33 35 34 32 33 33 32 34 35 35 35 34 34 35 35 35 35 35 38 39 42 50 55 54 55 55 55 54 52 53 54 52 50 50 49 49 49 48 49 49 49 50 51 52 55 57 59 60 60 61 62 61 59 59 60 62 66 74
96 97 96 94 88 73 63 65 62 52 56 74 86 80 68 63 62 55 47 41 34 31 34 36 36 34 32 34 37 36 34 32 32 32 32 32 34 35 36 35 33 33 36 37 38 39 40 44 46 50 55 57 57 57 56 55 55 53 53 53 50 49 49 48 48 48 47 48 48 49 51 53 55 57 58 60 62 62 63 63 60 59 60 59 62 70 80
94 101 100 96 89 74 63 68 69 63 69 82 83 73 64 61 59 54 50 48 42 37 35 35 35 35 34 34 35 33 32 32 31 30 30 29 31 34 37 37 35 36 38 39 40 41 42 44 47 50 53 54 55 56 56 57 57 53 51 50 49 48 48 47 47 47 47 48 48 50 53 55 57 60 61 62 63 62 62 61 60 63 63 59 65 80 88
88 98 97 88 85 78 67 70 75 74 75 76 74 73 70 63 58 54 52 52 49 43 39 39 40 39 36 34 33 32 33 33 32 32 32 30 30 33 36 38 37 37 39 39 40 42 42 42 43 43 43 45 50 55 56 57 56 52 49 48 47 47 46 46 47 47 47 48 49 50 52 55 58 60 60 61 61 59 59 62 66 69 65 61 69 84 91
85 90 88 81 81 77 70 70 71 68 68 69 67 69 72 70 64 60 57 56 52 46 41 39 40 41 40 37 35 34 34 34 33 34 34 32 31 31 34 38 38 37 39 40 41 43 43 42 43 43 42 43 47 50 53 55 56 54 50 47 46 46 46 47 47 47 48 49 50 52 54 57 58 58 57 58 58 57 59 65 71 72 68 65 70 78 84
87 84 84 83 81 77 72 71 69 65 65 66 62 60 63 66 66 65 63 59 53 49 45 41 40 41 39 38 38 37 35 35 34 34 34 34 33 30 31 36 38 38 39 41 42 44 45 45 46 47 47 47 46 45 47 51 53 53 50 47 46 46 47 47 48 48 49 50 52 54 56 57 56 56 56 57 56 57 59 64 68 69 68 71 73 74 75
85 88 93 89 80 74 67 61 62 67 68 65 60 59 60 59 60 62 64 61 56 50 46 42 40 39 37 37 39 37 36 36 35 34 34 35 34 32 31 32 36 39 41 41 41 42 44 46 47 48 48 49 47 46 47 49 50 50 49 47 46 47 47 48 49 50 50 51 53 55 55 55 54 54 55 56 57 58 59 61 63 64 66 72 75 72 71
90 91 90 78 67 63 56 49 54 63 67 64 59 59 59 58 61 64 64 64 62 55 48 45 43 39 38 38 38 38 38 37 36 35 34 34 35 36 34 31 33 37 39 41 41 41 42 44 45 46 48 48 47 47 47 47 48 49 49 47 47 48 49 49 50 51 51 52 52 53 52 52 51 51 52 54 56 57 57 60 63 64 65 69 73 72 71
94 87 75 66 64 63 53 48 52 55 55 55 54 53 51 53 65 72 65 62 64 61 54 51 48 44 43 40 39 39 39 38 38 37 36 35 35 36 37 35 34 34 36 39 41 41 42 43 43 45 46 46 46 46 46 46 47 49 49 48 49 49 49 51 51 52 52 52 51 50 50 48 48 48 50 54 57 57 57 59 62 64 66 68 71 72 72
94 84 67 60 67 70 58 48 49 48 45 45 48 49 46 47 59 70 66 61 63 63 60 59 56 52 49 45 43 41 39 39 40 38 37 38 36 36 37 38 37 37 37 38 39 39 40 41 43 44 44 44 45 45 45 46 47 48 49 49 49 49 50 52 52 53 53 52 50 49 47 45 45 48 51 54 57 58 57 58 61 65 69 70 72 73 72
77 65 54 49 58 66 55 43 45 48 44 43 45 47 46 46 53 63 67 66 62 59 60 62 62 60 55 50 49 46 40 38 39 39 39 39 37 37 38 37 38 39 39 40 40 39 39 40 41 43 43 44 44 45 46 47 47 48 49 49 48 49 51 52 54 54 53 51 48 46 45 44 46 49 51 53 56 57 56 56 58 63 69 72 75 76 74
59 50 45 45 53 58 49 40 42 44 42 43 43 42 42 44 48 53 56 59 59 59 61 63 65 66 61 53 52 53 48 41 39 40 41 39 38 38 38 37 38 38 38 40 41 40 41 41 41 42 43 44 45 45 45 47 48 48 49 49 49 51 52 53 54 53 51 48 46 44 44 45 48 49 49 52 55 56 56 56 56 59 64 71 77 80 78
53 46 41 43 47 47 43 42 44 41 40 43 43 39 38 39 40 41 43 47 51 53 54 58 63 67 65 57 53 56 56 49 42 41 42 42 40 39 38 37 37 37 37 39 39 39 41 42 42 42 43 44 46 46 45 46 49 49 49 50 51 51 53 54 53 51 48 45 44 44 45 48 50 50 51 53 54 54 55 55 56 59 62 67 74 80 79
39 37 35 38 38 35 35 42 46 42 40 42 41 38 37 36 36 38 39 41 44 44 47 53 59 64 67 64 56 55 58 55 46 41 41 42 42 41 40 38 37 37 37 38 38 39 41 42 43 44 42 42 45 48 46 47 49 50 50 51 52 52 53 53 51 48 46 44 43 43 45 47 48 48 49 51 54 54 54 54 56 59 61 63 68 73 72
34 34 35 38 39 35 33 37 40 37 37 40 39 36 36 37 39 41 40 41 43 45 50 55 58 62 67 66 60 58 58 56 49 43 41 42 42 42 42 41 39 39 39 38 38 39 40 42 44 45 42 40 43 48 50 49 50 51 52 52 53 53 53 52 51 48 45 43 43 43 43 45 45 45 46 49 53 54 54 54 55 57 59 60 62 63 63
39 38 39 42 43 40 35 34 35 33 34 37 37 34 32 33 35 38 39 39 40 41 43 44 46 52 58 60 60 59 55 51 49 45 42 41 41 41 42 42 41 40 40 40 40 40 41 42 44 46 44 41 42 47 51 50 50 51 52 52 53 54 54 53 50 46 44 44 44 44 44 46 47 48 47 49 52 53 54 55 56 58 60 60 57 55 55
42 41 41 41 41 40 38 36 36 34 33 34 36 36 34 33 31 32 33 34 34 35 35 34 34 37 41 48 56 58 52 48 47 45 42 41 40 38 39 41 40 39 39 40 41 41 42 42 44 46 46 43 42 46 50 51 51 52 52 50 50 52 53 51 47 44 44 45 44 45 46 46 48 48 47 47 50 53 54 55 57 59 60 57 52 48 47
42 40 40 40 38 39 39 36 34 34 35 37 38 38 38 39 38 35 33 33 33 34 35 35 36 36 35 39 46 50 49 47 46 44 43 42 39 38 38 39 39 40 40 40 41 42 42 43 44 45 45 44 44 45 48 49 50 52 52 50 49 49 50 48 44 44 46 46 45 45 46 46 48 48 46 44 47 51 53 56 57 58 56 52 47 45 45
41 40 40 39 37 38 39 37 37 40 42 41 39 37 38 40 41 41 40 38 36 34 35 37 38 37 36 36 37 39 41 42 42 42 43 42 40 39 38 38 40 42 41 40 41 41 42 44 44 45 45 45 45 45 45 45 46 50 52 52 49 47 47 45 44 46 47 46 46 46 46 46 47 48 47 45 45 48 53 57 58 56 52 48 47 47 46
42 41 40 39 38 39 42 41 39 40 39 37 37 38 39 40 41 43 45 44 42 41 41 42 41 41 41 41 38 35 36 37 37 39 41 41 40 40 39 39 40 41 41 41 41 40 41 43 44 44 45 45 45 45 45 44 43 46 50 51 49 46 45 44 45 47 47 47 47 46 45 46 46 46 48 48 45 47 52 57 59 56 51 47 48 50 48
44 44 42 40 39 40 41 38 35 36 36 36 38 40 42 43 44 45 45 45 46 46 45 45 45 45 45 46 44 41 40 41 40 39 39 39 39 40 40 40 39 39 40 41 41 41 42 42 42 44 45 45 46 45 45 45 43 43 45 47 47 45 44 44 46 47 47 48 48 46 46 46 46 47 50 50 47 48 53 56 59 58 53 51 52 51 49
43 42 42 41 40 40 40 37 36 37 39 39 41 42 43 45 46 46 46 46 47 47 46 46 46 45 44 46 48 46 45 46 45 45 44 43 42 43 42 41 41 41 41 40 40 41 43 43 43 44 45 46 46 45 45 45 44 41 41 44 44 43 43 44 45 47 47 48 48 48 47 48 48 49 51 50 49 50 53 55 57 58 55 54 54 52 49
42 41 41 41 40 39 38 38 38 40 41 42 43 43 43 44 44 44 45 46 45 46 47 46 46 45 44 45 46 47 46 46 46 46 47 47 46 46 44 43 43 42 41 41 40 40 41 43 44 45 45 46 46 46 45 45 44 42 41 41 41 42 43 43 45 46 47 48 48 48 48 49 50 50 51 50 49 50 52 53 55 56 56 55 54 53 51
43 43 42 40 37 36 37 39 41 42 43 43 43 42 42 43 43 43 44 45 45 45 45 45 46 46 46 46 46 47 47 47 45 45 46 46 46 46 45 45 44 43 43 43 42 40 41 42 42 42 44 45 46 46 46 46 46 44 42 41 41 41 42 43 44 46 47 48 49 48 47 48 50 50 50 50 50 50 51 52 52 53 55 56 55 54 53
42 42 41 40 39 40 42 43 42 42 42 42 42 42 41 41 42 43 44 43 43 43 43 44 45 46 46 46 47 47 47 47 46 46 45 45 46 46 45 45 45 45 44 44 43 42 43 42 42 42 44 45 46 46 46 46 46 46 44 42 42 42 42 43 45 46 47 48 49 49 48 48 48 48 48 49 50 50 51 51 51 50 52 54 55 55 54
45 45 44 43 42 41 41 40 39 39 39 39 41 42 42 41 42 43 43 42 41 41 41 42 43 44 44 46 46 46 47 47 47 46 46 46 46 47 46 45 45 45 45 44 44 43 43 43 43 43 44 45 46 46 46 46 46 47 46 44 43 42 43 44 45 46 47 48 49 49 49 48 47 48 48 48 49 50 50 50 50 49 48 49 52 53 53
43 44 43 42 40 39 37 36 36 37 38 40 41 41 41 41 42 43 43 42 42 41 41 42 42 43 43 44 45 46 47 47 47 47 47 47 47 47 46 46 45 45 44 44 44 44 43 43 43 44 44 45 46 47 46 46 46 47 47 46 45 44 44 45 45 46 47 48 49 49 49 48 48 48 48 48 48 49 48 48 49 49 49 48 49 50 51
44 44 43 42 41 40 39 37 37 38 39 40 41 41 41 43 44 44 44 43 42 42 42 42 43 44 43 43 44 44 45 46 47 48 47 47 46 46 46 45 45 45 45 44 44 44 43 43 44 45 45 46 46 47 47 47 47 47 47 47 46 45 45 45 46 47 47 48 49 49 48 48 49 48 48 48 48 48 49 48 48 49 50 50 49 48 49
44 43 42 42 41 40 40 39 39 39 39 40 41 41 42 43 44 44 44 44 43 43 43 44 45 46 46 45 45 44 44 45 47 47 47 46 46 46 46 45 44 44 44 44 44 44 44 43 44 44 45 45 46 47 47 47 47 48 48 48 48 47 46 45 46 47 47 48 49 49 48 48 49 49 48 49 48 49 50 50 49 49 50 50 49 49 48
41 41 41 39 38 39 39 38 38 39 40 40 40 41 42 43 44 45 45 45 45 45 45 44 44 45 47 47 46 45 44 44 44 45 45 45 45 44 45 45 44 43 43 43 43 43 44 44 44 44 44 44 45 46 47 49 49 49 49 49 49 48 47 46 46 47 47 48 49 49 48 48 48 49 49 49 48 49 50 50 50 49 49 49 49 49 49
43 42 41 38 37 37 38 38 38 39 39 38 39 40 41 41 42 43 44 44 44 44 44 44 45 48 50 50 49 49 47 46 46 46 45 43 43 42 42 42 43 43 43 43 43 43 43 43 44 44 44 44 44 45 46 49 51 51 51 50 49 48 48 47 47 47 47 48 48 49 49 48 48 48 48 48 48 49 50 51 52 51 50 50 49 49 49
47 46 43 41 39 37 37 37 37 37 37 37 38 38 38 38 39 41 43 44 44 44 45 48 51 53 53 52 51 51 50 50 49 48 46 44 42 40 38 40 42 43 43 43 44 44 44 44 44 44 44 44 44 45 45 47 50 52 52 51 50 49 48 47 47 48 47 47 47 48 48 48 47 47 46 46 47 49 49 51 52 52 52 51 49 48 48
49 46 44 43 42 38 37 38 37 36 37 37 37 37 37 37 38 39 40 40 41 43 46 50 54 54 54 54 52 51 49 50 51 51 49 47 45 42 38 37 38 40 40 42 43 43 43 43 43 43 44 44 44 45 45 46 48 51 53 52 51 49 48 47 47 48 47 45 45 47 48 47 47 47 46 46 47 48 49 50 51 52 52 51 48 46 47
48 46 45 45 43 40 39 39 37 36 37 37 36 37 37 35 35 36 35 35 38 42 46 51 55 57 57 59 58 54 50 48 49 49 50 50 50 47 44 41 40 40 41 42 43 43 43 43 42 43 45 45 45 45 45 46 47 49 51 52 51 50 48 47 47 47 47 45 43 44 46 47 47 48 47 47 47 47 48 49 50 52 53 52 50 47 46
47 46 46 45 43 41 40 40 38 37 38 37 37 38 37 35 35 35 33 32 36 42 47 53 57 58 59 62 62 59 55 52 50 49 48 50 50 49 47 47 46 44 43 43 44 43 43 44 45 46 47 47 46 45 45 46 47 49 50 51 52 50 49 48 47 47 47 44 42 42 44 46 47 48 47 46 46 47 48 48 49 50 51 52 52 51 50
44 44 44 45 43 41 40 40 39 39 39 38 38 38 37 36 36 35 33 33 38 45 50 53 56 56 57 60 61 60 58 58 57 54 50 49 50 51 50 51 52 50 48 47 46 45 45 45 46 46 46 46 45 44 44 45 47 48 49 50 51 51 50 49 48 48 47 45 42 41 43 45 46 47 47 46 45 46 46 46 46 48 49 50 51 52 51
41 41 41 42 41 41 40 40 39 39 39 38 38 38 37 34 33 32 32 35 39 44 48 51 53 54 56 58 58 57 56 58 61 60 56 53 52 52 51 51 52 53 53 51 50 48 46 45 45 45 46 45 45 44 44 44 46 48 49 50 51 51 51 50 49 48 48 46 43 41 41 42 43 45 45 45 44 44 45 45 45 45 46 47 48 48 49
41 41 40 40 40 40 40 40 39 39 40 40 39 38 36 33 30 29 30 33 38 43 46 48 50 53 56 57 58 57 55 56 59 62 61 57 54 52 51 51 51 52 54 55 54 51 49 47 46 46 46 46 45 44 44 44 45 47 49 50 51 52 52 51 50 49 48 48 45 42 41 41 41 42 42 42 41 41 42 43 44 44 44 44 44 44 46
42 42 42 41 41 40 39 39 38 38 38 39 38 37 35 33 31 30 30 32 36 41 43 43 47 51 54 55 57 58 56 54 56 60 62 60 55 53 52 53 53 53 55 57 56 55 54 53 50 47 46 46 46 46 46 46 47 48 49 50 51 52 51 51 51 50 49 49 48 45 43 42 41 41 41 41 40 39 39 40 42 42 43 43 42 41 42
43 44 43 43 42 41 40 40 39 38 37 37 37 36 34 34 35 36 35 34 35 37 38 40 45 49 52 53 57 59 57 55 55 58 60 60 57 55 53 53 53 53 54 55 55 56 57 57 54 50 48 47 47 48 49 50 51 51 50 50 51 51 51 51 51 50 49 49 49 47 46 44 43 42 41 41 40 39 38 38 39 40 41 41 41 40 41
Wind_Speed
6 5 6 6 4 4 5 6 6 6 6 6 5 7 8 6 5 7 7 7 8 8 7 7 9 10 10 11 16 19 18 16 16 16 16 16 16 17 18 20 20 21 23 23 24 26 27 28 28 29 31 33 33 33 32 32 31 27 24 26 26 24 22 22 23 23 21 19 18 18 18 18 17 16 15 14 14 15 15 15 15 16 15 15 15 16 18
5 4 5 5 3 3 3 5 6 7 8 8 7 7 9 8 9 9 8 9 11 10 8 9 12 17 18 19 21 21 19 18 19 20 20 20 19 18 19 21 22 22 22 22 22 23 24 24 24 25 28 30 31 31 30 31 30 26 25 28 28 26 24 24 25 24 23 22 21 20 19 18 16 14 13 12 13 14 14 13 14 15 15 16 17 18 19
5 5 5 4 2 2 3 5 7 7 6 6 6 7 7 7 9 9 8 9 10 9 9 11 16 19 17 17 19 22 23 22 21 23 24 23 22 20 20 22 22 22 22 22 22 23 21 20 21 23 26 28 29 29 29 30 28 26 26 28 29 29 28 28 28 27 25 23 21 20 18 17 15 14 13 13 14 14 14 13 13 14 16 18 20 21 22
5 4 4 5 5 3 5 7 9 8 6 5 6 6 6 6 7 7 7 7 7 8 8 10 15 16 13 13 18 21 24 23 23 25 26 25 24 23 22 23 24 24 24 24 24 24 22 20 20 21 24 27 28 29 28 27 27 27 28 28 30 32 31 30 30 28 25 22 20 19 18 16 14 14 13 14 14 14 13 13 14 15 17 20 23 24 24
4 3 2 4 6 7 8 7 8 10 9 9 8 6 6 8 7 6 6 7 7 8 6 7 9 10 10 13 17 18 20 22 22 23 23 23 23 23 24 25 26 26 26 26 25 25 24 22 21 20 22 26 29 30 28 26 26 28 29 30 31 33 32 31 30 26 23 21 20 19 18 15 14 14 14 15 15 15 15 16 17 18 20 22 24 25 25
4 4 4 5 6 9 7 5 7 10 10 9 8 7 8 9 7 5 5 6 7 6 6 7 10 11 13 17 20 20 22 22 20 19 19 20 20 21 22 24 24 25 27 27 27 26 26 25 23 21 21 24 27 28 28 27 26 27 29 30 32 34 34 31 29 26 23 21 20 19 17 16 15 15 15 16 16 16 17 18 19 20 22 23 24 24 23
3 2 5 2 8 8 3 2 4 6 6 6 7 7 8 9 8 6 6 7 8 8 11 15 17 21 24 24 22 20 20 20 19 17 18 18 18 18 19 21 21 22 24 26 28 28 27 27 27 25 23 23 26 28 29 28 27 27 28 30 33 36 36 32 28 25 23 22 21 20 18 17 16 16 16 17 17 17 17 18 19 21 22 23 24 24 22
1 1 2 5 6 5 6 8 6 4 4 3 3 6 8 8 8 7 6 9 10 10 15 18 20 25 28 24 19 17 17 18 20 20 19 17 17 17 17 18 17 15 16 19 22 24 25 27 29 29 25 23 26 29 29 29 28 28 28 30 33 36 36 32 27 25 23 23 22 21 20 18 18 18 18 18 18 18 18 19 20 21 21 22 24 24 21
3 2 4 4 6 8 7 7 6 3 4 4 3 4 7 7 6 6 5 8 11 11 15 18 18 18 16 12 10 12 14 16 19 20 17 14 15 15 14 13 12 10 9 10 12 15 19 23 27 28 26 24 25 29 31 30 28 27 28 30 34 37 34 29 25 24 24 24 24 23 21 19 19 19 20 20 20 20 19 20 20 21 20 21 23 23 21
4 3 4 4 6 7 5 5 7 8 10 10 6 4 6 7 7 8 6 8 12 12 12 16 13 7 4 5 5 6 9 12 14 14 12 10 11 13 11 9 8 8 7 6 6 8 11 14 20 25 26 24 24 28 31 30 27 27 29 31 34 34 30 26 24 24 24 24 24 23 21 19 19 19 20 21 21 21 21 21 21 21 21 21 22 23 22
4 4 6 6 6 7 4 5 7 6 10 7 2 3 5 6 6 8 7 8 11 12 13 14 8 4 3 6 5 8 10 9 11 11 10 9 8 8 7 7 7 7 7 7 7 7 8 9 12 19 25 25 24 27 31 30 27 28 31 32 32 29 26 25 24 23 23 24 24 21 19 18 18 19 20 21 21 21 21 21 21 21 22 22 23 23 23
5 5 5 5 4 5 5 5 4 4 9 8 3 2 5 5 10 14 10 7 10 11 13 12 5 6 6 8 10 14 13 13 13 12 11 10 8 7 7 7 8 8 10 11 11 10 11 10 9 14 22 26 25 27 30 30 28 29 30 31 29 26 25 24 23 22 22 23 22 19 18 17 17 19 20 21 21 20 20 20 20 21 22 22 22 23 23
5 6 6 5 3 4 5 3 2 2 7 6 2 5 5 10 19 23 18 12 12 11 8 9 7 8 10 11 16 16 11 11 11 9 8 9 7 7 7 7 8 9 10 12 13 12 11 10 9 13 21 26 27 28 29 29 27 27 28 28 26 24 24 24 22 21 21 20 19 18 17 17 18 20 21 20 19 19 19 20 19 21 22 22 23 23 22
3 3 4 5 4 4 4 1 4 3 2 1 5 4 9 15 19 23 24 17 11 8 2 6 8 9 11 15 16 13 8 7 7 5 6 7 7 7 7 9 9 7 8 11 13 11 10 10 11 15 20 24 26 26 26 26 26 26 27 27 25 24 24 23 21 20 19 18 18 18 18 19 21 21 20 19 18 18 19 19 19 20 22 22 22 22 21
2 3 4 5 4 2 1 2 3 3 3 4 3 8 14 16 17 20 23 20 12 7 3 6 11 14 16 15 12 9 7 6 5 5 4 3 4 5 5 6 6 5 8 12 12 10 10 11 13 16 18 20 22 23 24 25 23 23 24 25 25 24 24 22 20 20 19 19 18 18 19 21 21 20 18 17 16 16 17 18 19 21 21 20 21 21 20
2 4 4 3 3 1 3 3 1 2 2 3 5 8 11 15 17 18 20 20 14 7 4 3 5 9 12 13 11 10 9 7 7 6 4 1 3 4 4 5 5 5 8 11 12 11 11 12 14 16 16 16 18 21 23 23 21 20 21 23 24 23 22 21 20 20 20 19 18 18 20 21 20 18 16 15 14 14 15 18 19 19 18 18 20 21 21
2 3 4 3 3 2 1 1 3 4 6 6 6 7 9 13 15 15 17 20 18 11 5 1 2 2 4 7 10 11 12 10 8 8 6 2 2 3 5 6 6 6 8 11 12 12 12 13 15 17 15 15 17 18 19 21 21 20 20 22 23 22 21 21 21 21 21 20 18 18 20 19 17 15 14 12 11 11 14 17 18 17 16 16 19 20 21
2 3 4 5 7 7 6 4 5 6 8 9 8 7 8 10 12 14 15 18 20 17 13 8 5 3 2 3 5 8 10 11 10 10 9 6 3 3 5 7 7 6 7 11 12 12 13 15 17 18 17 17 17 17 17 20 21 20 21 23 23 22 22 21 21 21 21 20 19 19 19 17 15 13 13 11 10 9 10 12 13 14 14 14 15 17 19
1 2 2 3 7 12 13 13 11 9 9 10 10 9 8 8 11 14 16 18 20 18 14 11 9 9 8 7 7 6 8 12 14 14 12 9 7 6 4 5 7 7 9 11 12 12 14 16 18 19 20 20 19 18 17 20 21 22 23 25 25 25 24 22 22 22 21 20 19 19 18 15 13 12 11 11 10 9 9 9 10 11 11 12 12 14 16
3 3 5 10 16 20 20 19 16 12 9 8 8 7 7 7 10 12 14 17 18 16 13 12 11 10 10 10 10 9 8 10 14 16 15 13 11 9 7 5 6 8 10 12 13 13 14 15 17 20 21 21 21 20 19 20 22 24 25 26 26 26 24 23 22 22 20 19 19 18 17 15 13 11 11 12 12 11 10 10 10 10 10 10 11 11 13
2 4 8 13 16 17 17 15 11 8 7 7 7 8 8 9 10 11 12 15 17 14 11 10 11 10 9 9 12 14 13 11 11 13 16 16 15 12 10 7 7 8 10 12 14 15 14 14 17 21 22 23 23 22 22 22 24 26 27 27 26 25 24 24 23 21 20 20 20 18 16 14 13 12 12 13 14 14 12 10 10 11 12 11 9 9 10
4 4 8 11 8 7 11 12 9 7 7 8 10 10 9 10 11 12 13 15 17 16 12 10 9 9 9 10 12 14 14 13 12 11 12 16 18 16 12 10 9 9 10 11 12 13 13 14 17 20 21 23 24 25 25 24 25 27 28 26 26 25 25 24 23 21 21 21 20 17 14 13 13 13 13 14 15 15 13 11 10 12 13 13 11 9 10
7 10 15 16 11 9 15 19 17 14 11 11 13 14 13 12 11 11 13 16 19 20 16 13 12 13 14 14 13 13 12 12 13 12 11 13 17 18 15 12 12 12 12 12 12 12 12 13 16 18 19 20 22 25 27 27 28 28 28 27 26 26 26 25 23 23 23 22 18 15 14 13 14 13 13 15 17 16 14 13 13 13 14 14 13 11 10
13 18 24 24 18 17 21 24 22 19 17 16 16 17 15 13 11 10 12 17 21 22 19 17 16 16 16 16 13 15 16 12 10 11 12 12 14 16 17 16 15 14 14 15 14 14 13 13 15 17 19 19 18 21 26 29 29 29 27 27 27 28 27 25 24 24 23 20 16 14 14 14 14 14 14 17 18 16 14 15 15 15 15 15 14 13 12
18 23 26 26 24 24 25 26 25 23 21 20 20 20 17 15 14 13 13 16 19 19 19 19 19 17 17 19 17 17 20 15 9 8 10 11 12 14 16 17 17 16 15 16 16 16 16 15 15 16 19 19 17 18 23 28 29 28 27 26 27 28 27 25 24 24 22 18 14 14 15 15 15 15 16 18 18 17 15 16 16 16 16 16 15 14 14
22 23 24 24 25 25 24 23 23 23 22 21 21 21 17 15 15 16 16 15 17 20 21 21 20 18 18 22 22 19 22 21 14 10 10 11 12 14 15 16 17 17 16 17 18 18 18 18 17 16 17 18 17 17 22 26 27 25 24 24 25 26 25 24 25 25 22 17 15 15 16 17 16 16 16 17 17 16 16 16 17 17 17 16 15 15 16
26 26 24 20 20 22 24 23 22 23 23 22 21 18 15 14 15 17 17 16 16 17 20 22 22 21 20 22 26 24 25 25 21 16 13 12 12 13 14 15 15 16 17 19 20 20 20 20 19 18 17 17 16 18 22 25 25 24 23 23 24 24 24 24 25 25 23 19 16 15 16 16 16 18 18 17 16 16 16 16 18 18 18 16 15 15 16
28 29 27 21 20 25 28 26 25 26 25 24 24 21 17 17 17 18 18 18 16 16 19 22 23 22 21 21 25 26 26 25 22 20 17 15 15 15 15 16 16 17 18 20 20 21 22 22 22 21 19 17 16 18 22 24 25 24 23 23 23 23 24 26 26 24 22 19 16 15 15 15 16 19 20 18 17 16 15 16 18 19 18 17 16 16 16
28 28 28 26 26 27 26 24 26 26 24 22 23 22 19 19 20 21 20 19 18 19 21 22 23 23 23 24 25 25 25 25 24 22 20 20 19 18 17 18 19 19 20 21 22 22 24 24 24 24 21 18 17 19 22 24 25 25 24 23 23 23 25 27 26 23 21 19 17 17 16 15 16 18 19 19 19 18 16 17 18 18 17 17 17 16 16
27 27 27 27 25 24 23 24 24 20 15 13 14 14 13 14 17 20 22 22 21 19 18 18 19 22 24 25 25 25 25 25 23 22 21 21 22 22 21 20 22 23 22 22 22 23 25 25 26 26 24 20 18 20 22 24 25 26 26 25 25 24 25 27 25 23 22 20 19 17 16 15 17 17 17 18 20 20 19 18 18 17 17 17 16 15 16
30 29 28 28 26 25 23 20 15 11 10 9 11 12 13 14 15 16 17 20 22 23 21 19 19 20 22 23 23 23 24 24 23 24 24 24 22 22 21 21 22 25 25 23 22 23 24 26 27 27 25 22 20 21 22 24 25 26 27 27 26 25 26 26 25 24 23 22 19 17 16 16 17 18 17 17 19 20 20 18 17 17 17 17 15 15 15
29 28 28 29 26 21 15 12 11 11 12 13 15 16 16 16 16 15 15 14 16 17 18 17 17 18 21 24 24 24 24 24 24 25 27 26 23 19 18 18 20 22 23 23 23 23 24 26 27 27 26 24 22 22 23 25 26 26 28 28 27 26 27 27 25 24 23 22 20 19 17 15 17 19 19 17 17 20 20 18 17 17 16 16 16 15 14
24 22 23 23 20 15 12 12 14 14 14 14 14 14 14 14 14 14 14 13 14 15 16 16 14 14 15 18 20 20 21 22 23 23 25 25 24 21 20 20 21 21 21 22 23 24 25 26 26 26 26 26 24 23 24 26 27 27 28 29 29 28 28 27 26 25 24 23 22 21 19 17 18 20 19 17 17 19 20 20 19 18 17 17 17 15 14
25 22 19 16 14 12 14 15 14 12 11 11 12 13 14 13 12 12 12 13 14 15 17 18 18 17 16 16 16 15 16 16 17 16 17 18 18 17 17 17 18 20 21 21 22 24 25 25 24 25 26 28 27 25 24 26 27 28 28 29 30 30 29 28 27 26 26 25 23 22 21 21 21 21 19 17 17 19 21 21 21 20 19 20 19 17 15
26 24 20 16 12 12 15 17 16 12 10 10 11 12 13 13 13 13 13 13 14 15 15 16 17 18 19 19 19 19 18 17 16 14 13 12 12 12 13 14 15 18 21 23 24 24 24 24 23 23 25 28 29 28 25 25 27 28 29 30 30 31 30 30 29 28 28 26 24 22 22 23 24 23 20 17 17 18 19 21 22 22 21 20 19 18 16
16 16 17 17 16 15 17 18 15 9 6 6 8 10 12 13 14 15 14 14 15 15 16 16 16 16 16 17 18 19 18 18 17 17 16 15 14 14 14 15 16 17 20 22 22 22 22 23 24 23 24 27 30 30 28 26 27 29 30 31 31 32 32 32 31 30 29 27 25 24 23 23 23 23 21 19 18 18 17 18 20 22 23 21 19 17 17
7 8 9 10 10 9 10 11 9 7 7 8 8 9 11 13 14 14 14 15 15 15 15 16 16 16 16 16 17 17 17 17 17 18 18 19 18 17 17 18 18 19 21 22 22 21 21 22 23 23 23 25 28 31 30 27 27 28 30 31 32 32 33 33 32 32 31 29 27 26 25 24 24 23 22 21 21 21 20 18 18 20 23 24 22 20 19
4 4 3 3 3 4 6 7 7 8 9 10 11 11 12 13 14 15 15 16 15 15 15 15 16 16 17 17 17 18 18 17 17 17 17 17 18 18 20 21 21 21 22 23 23 23 23 23 22 22 23 24 27 30 31 29 27 28 30 31 31 32 33 33 34 33 33 31 29 28 28 27 26 25 24 23 22 23 23 22 21 20 21 22 24 23 23
10 9 8 7 6 6 7 8 8 8 8 9 11 13 14 14 15 16 17 16 16 15 16 16 16 17 17 17 18 18 18 18 18 17 16 16 17 18 20 21 21 22 23 23 23 23 23 22 21 22 23 24 25 28 30 30 29 29 30 30 30 31 31 33 34 34 34 33 31 29 29 29 28 27 26 25 24 24 23 23 24 23 22 21 22 24 25
12 12 12 11 9 8 9 9 9 9 9 10 12 14 14 15 16 17 18 18 18 17 17 18 18 18 18 19 20 19 19 19 19 17 17 18 19 20 20 20 19 19 19 20 21 22 22 21 20 22 23 22 23 26 28 29 30 31 31 30 30 30 30 31 33 34 35 35 33 31 30 30 30 29 28 28 27 26 25 24 24 25 25 24 23 24 25
9 10 12 12 12 11 11 11 11 11 11 11 12 13 14 15 17 17 18 18 18 18 18 19 19 19 19 19 20 21 20 19 17 16 17 20 21 21 22 21 19 18 17 17 18 20 21 20 20 21 22 22 22 24 26 28 30 31 31 31 31 30 30 31 32 33 35 35 34 32 30 30 31 31 30 30 29 29 28 27 25 24 25 25 25 25 25
10 12 13 13 12 11 11 12 13 13 13 13 14 14 14 15 16 16 18 19 19 20 21 21 21 21 20 19 20 20 20 19 18 18 20 22 22 22 22 22 20 18 18 19 19 19 20 20 20 21 22 23 23 24 25 28 30 32 32 32 32 31 31 31 31 31 33 34 35 33 30 30 31 31 31 31 31 30 30 29 28 26 25 25 25 25 25
14 16 16 15 13 12 13 14 14 15 16 16 15 15 16 17 18 18 20 20 21 21 21 21 20 20 19 20 20 20 19 19 18 19 21 23 23 23 23 23 21 19 18 19 20 20 20 20 20 21 22 24 24 25 25 28 30 32 33 33 33 33 32 32 31 31 31 33 35 34 32 31 30 30 30 30 30 29 29 29 29 28 27 26 25 26 26
18 18 18 17 15 13 13 14 14 15 17 17 17 17 19 19 19 19 19 20 20 21 20 19 18 19 20 22 22 21 21 21 20 19 20 23 25 24 23 21 20 19 19 18 19 20 20 20 20 21 21 23 25 26 27 28 30 31 32 33 34 34 33 33 32 32 31 32 33 34 33 32 30 28 28 29 29 28 28 28 27 27 27 27 27 26 26
19 19 19 19 17 15 15 15 16 17 18 19 19 19 19 18 18 18 18 20 21 20 18 18 19 20 21 21 21 21 22 22 21 20 20 22 24 25 23 21 20 20 19 18 19 20 21 21 20 20 20 21 23 26 28 30 30 31 32 33 34 35 35 34 33 33 32 32 32 33 33 33 31 29 28 29 29 28 27 26 25 25 25 26 26 27 28
19 19 19 19 18 17 17 17 17 18 19 20 19 18 18 17 18 19 20 21 22 21 18 18 19 20 20 19 19 20 21 22 22 22 20 19 19 20 20 20 19 19 18 19 20 21 21 21 20 20 19 19 21 24 27 30 32 32 32 33 34 35 36 35 34 33 32 32 32 32 33 33 32 30 29 28 29 28 27 26 25 25 24 24 24 25 26
19 19 19 19 18 18 18 18 18 18 18 19 19 19 19 20 21 21 22 22 22 21 19 18 18 19 20 20 20 20 20 20 22 22 20 18 17 17 17 16 16 17 17 19 21 21 21 20 19 19 19 20 20 21 24 28 32 34 34 34 34 35 36 36 35 34 33 32 31 31 32 33 33 32 30 28 28 28 27 26 25 26 26 25 25 25 25
20 20 20 19 19 19 19 19 19 18 19 19 19 20 22 23 24 24 23 22 21 20 19 19 19 20 22 22 22 20 18 16 18 20 20 19 17 16 14 14 15 17 18 19 20 20 20 19 19 20 21 22 22 22 22 25 29 33 35 35 35 36 37 37 37 36 34 33 32 32 32 33 33 33 32 31 29 28 27 26 26 26 26 26 26 27 27
20 21 21 20 20 21 21 20 20 20 20 20 21 22 24 25 26 24 23 21 20 20 20 20 21 22 22 22 22 20 16 13 14 17 19 19 17 16 14 13 14 17 18 19 20 21 22 23 24 24 24 23 22 22 22 22 25 29 33 34 35 35 36 36 37 37 36 34 34 33 32 32 33 33 33 32 31 29 28 27 27 27 27 27 27 28 28
21 22 22 22 21 20 20 20 20 20 21 21 23 24 25 26 27 26 24 22 21 21 21 21 21 21 21 21 20 19 16 14 13 14 16 18 18 17 15 14 13 15 17 19 20 22 24 25 26 25 22 20 20 21 21 21 23 26 29 32 33 34 34 35 36 37 38 37 35 35 34 33 33 33 32 32 32 31 30 30 30 29 29 29 29 29 30
21 21 21 21 21 21 21 22 23 23 24 25 25 25 26 26 27 27 25 22 21 21 22 22 22 22 21 20 19 18 17 16 15 14 15 16 18 19 18 16 13 13 14 17 18 19 20 23 26 26 23 21 19 19 19 20 22 24 26 28 30 31 32 33 35 37 38 38 37 37 36 35 35 34 34 33 33 33 33 33 33 32 32 31 31 31 31
22 21 21 22 22 22 23 23 23 23 24 23 23 24 25 26 27 26 24 22 21 22 23 23 23 23 22 21 21 21 20 17 16 14 13 13 14 17 20 20 17 14 15 17 17 16 16 17 20 22 23 22 20 17 16 17 20 24 26 26 27 28 30 31 33 35 36 37 38 37 37 37 36 36 36 36 35 35 35 36 36 35 35 34 34 33 33
Wind_Direction
250 213 225 242 226 219 203 193 218 240 249 243 232 244 236 199 213 251 240 218 231 246 234 224 232 229 225 232 234 236 237 229 217 212 213 217 220 221 218 219 223 225 224 224 222 222 224 227 231 230 228 226 225 227 227 220 212 209 212 214 213 212 211 207 205 210 214 219 227 236 243 250 256 260 260 257 255 254 252 253 255 258 262 268 272 276 278
295 268 266 267 252 252 228 210 222 230 240 233 220 238 239 222 234 246 236 235 245 249 237 224 229 229 228 237 243 241 240 235 221 212 212 217 221 225 225 224 225 226 226 228 227 225 226 229 231 229 226 224 224 224 221 213 208 210 214 216 217 217 217 216 216 217 219 224 231 237 243 249 254 256 252 246 246 248 248 251 257 263 272 281 286 289 290
301 287 283 283 276 246 233 246 249 244 257 261 240 240 240 235 247 252 249 251 255 255 241 235 243 242 234 236 241 238 239 241 229 214 213 219 223 229 235 235 232 229 228 228 228 228 231 232 232 229 226 224 222 218 214 210 210 212 216 217 217 218 220 222 221 220 221 225 232 237 242 247 249 247 243 243 245 248 250 255 261 270 281 289 293 295 294
279 281 300 313 330 313 258 254 257 255 258 256 243 234 215 211 230 245 252 255 259 259 246 236 244 246 241 241 241 236 235 233 224 216 218 225 228 231 237 238 236 234 233 231 230 230 232 232 232 232 230 224 219 216 213 213 215 216 218 220 218 218 220 220 218 217 220 225 231 235 239 244 244 239 237 242 247 248 250 256 265 276 285 289 293 294 295
273 278 327 345 344 316 277 248 235 234 232 230 240 250 234 217 208 214 232 238 244 251 244 235 240 240 239 242 241 234 226 220 220 223 228 233 237 238 240 239 237 235 234 235 236 235 235 234 231 232 231 225 221 218 214 212 215 218 220 221 220 219 218 215 214 216 223 231 232 232 235 239 237 233 233 237 242 245 251 262 271 281 287 289 291 291 291
266 291 28 17 310 281 259 217 200 208 215 218 223 237 242 231 214 208 230 246 253 252 234 226 234 234 235 242 245 241 235 229 225 227 232 236 240 242 242 241 241 240 239 239 239 239 238 238 235 231 230 229 227 222 215 212 215 221 225 225 222 219 216 214 215 221 228 231 228 227 228 227 226 228 232 235 240 246 255 265 274 282 287 289 290 289 288
255 327 49 344 270 258 252 281 235 223 232 227 222 242 250 241 239 241 250 258 255 244 235 233 238 243 245 249 251 247 244 240 231 227 233 237 239 238 236 235 236 239 241 242 242 241 240 240 238 232 228 229 229 223 217 215 219 226 232 232 226 221 218 217 219 224 226 223 222 222 221 221 226 232 234 237 242 249 256 266 276 282 285 288 290 288 284
220 63 149 225 261 292 307 308 299 277 276 249 235 278 272 248 234 221 228 253 251 241 242 245 251 253 250 248 247 239 237 238 232 232 239 240 240 239 231 224 223 225 230 235 238 241 243 243 240 234 228 227 227 223 219 219 223 228 232 233 227 219 217 218 220 221 219 217 218 219 221 225 231 234 236 241 246 252 260 269 277 281 283 288 292 289 282
174 180 216 243 305 309 289 288 289 276 277 262 227 260 273 257 231 208 220 265 268 256 251 253 259 260 252 247 245 232 232 238 235 235 240 241 235 227 212 206 210 210 209 214 223 235 244 246 243 238 231 225 225 223 220 221 225 227 226 223 218 214 214 216 217 216 216 216 217 219 226 232 236 238 240 244 249 255 263 270 276 281 285 290 293 289 281
170 199 240 256 284 275 224 213 242 260 288 281 221 201 274 275 254 241 236 259 272 268 252 249 251 243 229 254 252 202 206 227 227 222 223 221 210 200 193 196 204 204 206 217 229 237 240 242 244 242 232 222 221 222 221 223 224 220 216 213 210 210 211 213 215 216 217 218 220 224 232 237 241 244 244 247 252 259 266 273 278 283 287 290 290 285 279
171 190 234 240 248 254 227 206 223 270 319 318 159 162 281 273 278 284 260 253 277 275 248 242 234 152 168 252 227 155 148 168 177 173 171 172 178 190 203 218 228 237 248 258 262 259 249 242 245 243 232 220 216 218 220 224 222 214 210 208 207 208 212 213 215 218 218 220 224 229 237 241 245 248 249 251 257 263 269 275 279 283 286 288 285 281 278
189 184 229 246 239 246 244 226 226 311 354 13 81 219 262 283 324 321 298 289 323 306 257 237 191 160 219 231 182 151 137 141 149 149 151 158 169 186 199 211 229 247 257 257 252 251 254 253 251 242 228 218 215 218 220 222 221 214 211 210 209 211 214 215 215 216 217 221 226 232 240 245 249 250 251 253 259 265 269 273 277 282 285 285 282 279 277
198 194 225 254 264 248 243 217 184 358 14 28 160 208 260 315 332 335 328 324 345 340 278 228 195 207 223 192 160 151 146 148 151 154 167 176 185 198 215 239 253 254 252 248 242 239 241 244 241 233 224 219 220 222 220 219 218 215 214 213 212 213 214 213 213 214 216 223 230 238 244 247 248 248 250 254 259 263 266 271 277 282 283 282 278 274 271
194 190 222 266 276 242 239 133 104 93 53 216 218 263 316 324 332 339 337 331 339 351 316 182 162 157 160 155 153 154 163 170 171 183 200 205 214 225 241 259 266 260 240 228 225 225 221 217 220 220 217 216 218 218 218 219 220 216 214 213 213 212 211 212 213 216 220 228 235 240 242 242 243 245 248 253 257 261 267 273 277 279 279 278 272 265 262
148 165 216 264 264 225 326 28 90 128 180 207 255 315 325 332 339 338 336 337 348 8 50 141 145 144 148 156 164 171 181 188 189 194 201 222 238 234 238 248 243 230 224 220 218 219 215 208 211 214 214 217 220 222 224 226 223 217 213 211 210 210 211 215 219 221 225 231 235 239 239 239 240 243 248 254 258 266 273 275 274 274 275 273 266 259 258
155 175 207 228 206 198 6 12 197 238 297 334 345 326 314 326 339 336 329 328 335 356 41 95 142 162 169 173 176 179 182 182 185 190 189 258 269 238 231 243 236 224 230 230 223 218 216 214 215 215 217 222 225 226 227 225 222 219 215 211 211 213 216 221 223 224 226 231 235 238 238 237 238 244 252 258 267 277 277 271 268 269 270 266 259 255 256
190 203 246 266 242 241 331 160 213 269 298 309 331 338 323 322 330 334 328 319 315 314 313 307 122 135 168 188 196 198 194 189 192 202 205 216 297 259 236 241 247 248 247 240 228 220 220 220 217 216 216 218 222 225 225 222 222 224 220 215 215 217 220 223 225 227 230 233 235 236 234 234 239 249 258 267 281 288 278 267 265 268 268 264 259 258 261
267 254 272 298 301 293 292 279 256 259 273 279 287 307 320 321 322 327 326 315 305 300 293 278 256 245 266 269 241 219 209 206 207 207 207 212 245 254 234 236 243 242 231 228 227 225 225 222 219 220 219 218 222 228 225 220 222 224 222 220 220 222 225 227 228 231 233 233 232 230 230 234 243 255 265 274 288 295 284 273 268 268 268 266 265 265 264
276 240 203 237 268 277 293 303 292 271 270 279 279 277 287 308 317 318 317 313 305 295 286 280 263 241 241 267 278 259 231 220 214 211 213 221 229 227 222 230 234 222 216 225 231 231 227 224 222 224 225 225 227 227 222 220 223 224 222 222 223 224 226 228 228 231 234 233 230 226 228 236 247 258 268 275 279 285 289 282 271 265 265 266 270 272 265
209 246 260 269 272 278 289 295 290 279 275 281 289 290 293 308 314 310 306 309 309 299 281 275 269 248 238 250 262 264 250 229 221 223 226 228 229 223 214 217 224 220 224 235 240 239 237 233 227 226 228 230 230 227 224 224 226 224 222 223 224 226 228 228 230 233 234 233 229 227 233 242 250 258 268 271 270 276 286 287 278 271 268 270 275 277 266
267 286 280 279 283 288 287 278 272 277 281 280 290 304 310 307 304 304 301 301 307 307 292 281 280 270 255 256 263 264 259 248 238 233 231 232 232 226 218 223 229 227 231 238 242 245 250 246 237 232 232 234 234 230 227 228 228 226 225 225 227 229 230 230 231 234 233 230 229 232 238 246 250 253 261 267 269 274 280 283 281 277 275 281 288 285 270
272 252 254 261 269 282 277 269 264 270 277 279 278 283 297 299 295 302 308 305 305 305 297 289 292 286 277 279 277 266 256 251 248 241 233 234 234 228 224 232 235 232 235 240 244 250 253 251 244 241 239 239 239 235 231 230 230 229 227 228 230 231 231 230 231 232 230 228 229 233 240 247 249 251 257 264 269 271 272 275 275 270 270 279 288 287 277
245 245 259 264 258 259 275 281 279 272 272 281 277 273 278 284 285 296 304 303 305 305 295 283 286 283 271 270 279 281 268 253 246 245 241 238 234 229 226 229 233 235 236 239 246 253 255 253 251 250 249 248 245 240 235 232 231 230 229 230 231 231 229 229 230 231 229 226 227 234 242 247 248 251 259 264 264 264 266 270 270 265 264 269 272 271 271
254 266 275 276 268 266 278 285 284 277 272 272 274 277 277 274 275 284 289 289 295 300 293 281 283 284 267 255 273 298 294 273 251 248 246 241 238 234 230 229 234 238 237 239 247 254 256 257 256 256 258 258 253 245 238 232 230 230 230 231 232 231 229 229 230 229 226 223 226 236 241 243 245 250 257 262 260 258 261 268 271 268 265 264 262 261 264
264 273 280 283 280 282 287 288 284 279 272 267 271 278 276 270 271 275 277 281 285 290 291 285 283 284 268 249 257 289 297 286 268 255 249 245 243 239 234 232 235 238 240 245 251 255 256 258 260 261 262 262 258 247 236 229 226 227 230 232 233 232 231 230 226 222 218 219 227 236 238 239 245 252 258 260 260 260 262 267 271 270 268 265 261 259 263
277 284 290 292 290 292 294 287 278 273 267 264 270 276 274 270 272 271 271 275 278 279 283 283 281 282 271 247 241 267 292 290 277 264 259 255 250 245 243 243 243 244 247 252 255 255 254 257 259 260 264 265 259 243 229 222 222 226 231 232 233 234 235 232 225 219 217 222 232 237 236 237 242 251 256 257 257 259 264 270 273 273 271 268 263 262 264
282 287 291 292 290 291 289 282 277 276 273 267 265 270 273 272 272 272 270 270 273 278 282 280 277 277 267 244 235 252 279 285 278 269 265 258 252 249 249 249 248 249 252 256 257 255 254 255 255 256 261 264 258 242 229 225 227 233 236 234 234 238 239 235 228 223 223 230 237 236 234 236 241 248 252 250 247 252 262 272 279 279 276 273 268 266 266
279 281 279 274 274 280 282 282 283 286 286 278 264 258 263 266 266 272 276 275 274 276 278 280 279 276 269 256 248 256 272 280 275 270 265 259 257 257 253 250 250 253 255 257 258 257 256 254 252 253 258 262 256 244 236 235 237 239 239 237 238 240 237 232 228 226 228 233 237 235 237 244 248 250 251 249 245 248 258 270 280 280 275 270 268 268 267
279 282 281 277 276 278 279 284 289 290 291 288 274 263 266 270 264 261 265 271 275 273 272 278 282 279 276 271 260 257 267 275 273 270 269 265 263 261 256 253 254 256 258 259 259 260 259 254 250 251 256 258 252 244 241 242 242 242 241 240 240 240 235 228 225 227 232 235 234 234 239 245 245 246 251 251 247 245 252 264 274 275 266 260 264 271 274
286 290 291 290 290 289 286 290 294 287 278 281 279 274 285 296 286 272 264 264 269 271 271 277 280 278 279 278 269 263 268 275 275 275 276 276 272 265 259 257 256 253 255 257 258 259 259 254 250 252 256 256 250 243 242 244 247 247 245 242 240 238 233 227 227 231 235 233 231 233 235 235 236 243 254 254 247 243 247 257 267 267 258 254 264 280 288
289 290 290 289 292 293 290 287 285 272 259 270 283 286 293 304 308 302 290 276 269 268 268 271 273 274 277 278 274 272 275 278 280 279 280 281 279 267 259 260 257 252 251 255 258 260 260 255 252 254 258 256 249 242 241 243 246 246 244 241 238 236 232 229 230 233 232 229 230 234 234 234 238 245 252 253 247 242 243 252 261 259 250 250 264 283 294
288 288 288 288 287 284 275 268 270 277 285 292 293 294 296 295 296 303 309 304 292 283 279 278 277 277 278 277 275 274 275 277 280 280 277 279 281 272 260 259 260 256 255 257 259 261 261 258 257 258 258 254 248 244 242 241 243 244 242 239 236 234 231 230 231 231 229 229 233 235 235 239 244 244 243 248 249 243 240 247 255 254 249 251 264 280 291
279 283 288 290 284 269 259 269 281 286 290 294 294 295 301 302 297 294 296 302 305 302 298 297 294 290 289 289 287 284 282 282 283 279 273 274 279 275 266 262 263 263 263 265 265 264 263 262 264 264 260 253 248 245 243 242 243 244 244 242 239 236 233 232 232 231 230 232 236 237 238 242 243 238 238 245 249 243 241 245 252 254 254 256 264 275 283
270 270 274 281 283 275 272 278 283 282 284 296 301 300 301 305 308 305 300 300 302 299 295 295 294 291 294 300 301 301 301 300 296 290 282 280 281 277 268 264 264 264 268 273 274 269 264 264 267 268 262 255 249 245 243 243 244 245 245 244 241 238 235 233 232 231 232 235 237 237 238 239 237 234 236 241 244 242 243 246 250 252 255 256 260 267 272
265 261 258 260 270 275 275 278 282 283 287 297 306 310 313 316 318 318 314 308 306 303 300 299 295 289 288 290 291 293 297 301 301 300 298 296 293 285 276 270 266 265 267 272 274 272 268 265 267 269 266 258 250 244 243 243 243 244 245 244 243 242 241 238 235 234 236 237 236 235 236 236 235 235 236 239 242 243 244 246 247 249 252 255 256 259 263
261 260 256 255 258 264 270 275 276 273 280 302 316 324 328 329 327 326 323 317 312 309 306 304 301 294 289 287 286 287 290 292 292 291 290 289 289 288 283 278 274 272 271 271 272 273 271 267 265 267 267 261 252 246 243 243 243 244 245 244 244 245 244 242 239 238 238 237 235 235 234 234 235 237 238 237 239 240 240 242 244 245 248 252 255 255 256
269 282 275 261 253 252 256 258 253 252 271 290 302 313 321 324 326 325 321 318 318 317 315 311 306 300 295 292 289 288 288 288 287 286 285 285 284 283 282 280 278 278 277 275 275 276 275 271 267 265 264 261 255 248 244 242 243 244 244 245 245 246 246 244 242 239 238 236 236 236 235 233 235 238 238 236 236 237 237 240 245 245 244 247 250 251 253
323 325 320 290 257 243 248 257 267 277 283 286 289 296 305 312 318 321 320 318 318 318 319 320 317 310 304 299 294 290 288 288 287 285 286 286 285 282 281 280 279 279 279 278 279 279 277 273 269 265 262 260 256 250 245 242 242 242 243 244 245 247 247 247 244 241 239 238 236 235 234 234 237 239 239 237 237 237 238 241 246 248 244 243 245 247 250
338 336 332 327 319 305 297 298 299 298 299 302 304 304 302 303 310 317 319 317 314 314 316 319 321 320 317 312 305 298 294 290 287 284 287 293 294 290 285 281 279 279 278 276 276 276 274 271 267 263 260 259 257 251 245 242 241 241 242 244 245 247 249 249 248 245 243 240 237 235 235 236 239 242 242 240 239 239 240 242 246 249 248 245 244 245 248
331 327 321 319 319 316 314 315 316 315 316 317 315 312 309 309 312 315 314 312 310 310 312 315 317 318 318 316 313 308 302 294 286 283 288 296 298 296 292 287 283 281 280 277 274 273 271 269 265 260 257 257 256 252 247 244 242 240 240 241 244 247 249 250 250 248 245 241 237 236 236 238 240 243 244 244 243 242 242 243 245 248 249 248 245 245 247
326 323 317 312 312 313 315 315 315 315 315 316 317 317 314 313 314 314 312 311 310 309 309 311 313 314 315 316 314 311 305 296 288 287 293 296 295 293 292 289 286 285 285 282 277 273 270 267 263 259 257 257 257 253 250 247 243 240 239 241 243 246 248 250 250 250 248 243 239 238 239 240 241 242 245 246 246 246 246 245 245 246 247 248 246 245 247
328 330 326 322 320 321 322 319 317 318 320 320 320 319 317 315 314 313 310 308 307 307 306 306 307 309 311 312 313 312 308 299 292 292 294 295 294 293 291 288 285 282 281 279 276 274 271 267 263 261 259 258 257 255 253 250 246 242 240 241 243 246 248 249 251 252 250 247 243 241 241 242 242 243 244 246 247 248 248 247 246 245 245 246 245 245 246
321 326 331 334 330 323 321 321 320 320 320 319 318 317 316 315 313 310 307 305 304 305 305 304 304 307 308 309 311 314 314 311 306 301 295 291 289 289 289 287 283 280 278 276 274 271 269 267 266 265 262 259 256 254 252 250 248 245 242 242 243 245 247 249 250 251 251 249 245 242 242 242 242 243 245 246 247 248 247 247 248 247 246 245 246 247 247
310 314 323 332 331 325 324 326 323 317 316 316 317 317 316 314 312 309 308 308 308 307 306 306 307 308 308 308 308 309 311 314 315 311 302 294 289 286 283 281 278 277 278 279 276 273 271 270 269 268 267 263 258 255 252 250 248 246 243 242 243 244 246 248 249 250 250 250 248 246 243 242 242 243 246 247 248 247 245 246 247 248 247 246 246 248 249
304 304 311 320 323 322 323 325 323 318 315 315 313 310 309 311 314 315 315 316 315 311 307 306 308 309 310 310 309 307 305 306 308 309 307 303 299 293 286 279 275 274 274 276 276 275 274 273 271 271 270 265 260 257 254 251 248 246 244 243 242 243 245 247 248 249 250 251 250 248 245 244 243 245 248 250 249 247 245 247 248 248 247 246 246 246 247
304 303 306 313 315 315 316 317 316 312 310 311 312 309 306 308 313 315 316 317 318 315 310 304 304 307 311 314 313 310 304 298 296 298 300 302 303 301 296 289 283 277 274 275 277 277 276 276 276 276 274 269 262 258 256 253 250 247 245 243 242 242 243 245 247 248 250 250 250 249 247 246 246 248 251 250 248 245 245 248 250 249 248 248 248 246 245
306 303 304 309 311 311 311 310 307 305 306 309 312 309 305 305 308 309 310 312 315 316 312 306 301 303 308 311 314 316 313 304 297 296 294 292 293 299 304 306 303 294 285 281 280 278 275 273 274 275 275 272 266 259 256 253 251 249 246 245 243 242 243 244 246 247 248 249 249 249 249 249 250 252 252 249 246 246 247 249 250 249 249 251 251 250 248
306 303 304 306 306 306 306 304 301 301 305 309 309 305 302 303 307 308 306 306 308 311 312 308 303 303 305 305 307 312 317 313 304 298 294 290 290 296 309 324 329 319 303 290 283 278 275 273 271 272 274 273 266 258 253 251 250 249 248 247 246 244 243 243 245 246 247 247 247 247 247 248 250 252 253 251 249 250 250 249 246 245 246 247 249 250 251
300 300 301 301 300 302 305 305 301 299 300 302 300 298 299 304 309 311 308 305 303 305 309 311 309 307 306 305 305 306 309 309 304 297 291 287 287 288 294 309 323 325 317 304 289 279 275 274 272 272 271 268 261 255 252 251 250 249 248 249 249 247 245 245 245 246 247 247 246 246 246 247 248 250 252 252 251 250 248 245 243 241 241 242 244 247 250
301 302 301 299 297 301 307 308 305 300 298 297 297 297 301 306 310 312 311 307 302 300 304 310 314 313 311 307 304 303 304 304 302 295 290 286 282 278 278 289 304 313 316 312 300 286 275 270 269 268 266 261 255 252 253 254 253 250 249 250 251 250 248 247 247 247 248 248 247 247 246 246 247 248 250 250 250 248 246 245 244 244 243 244 246 249 252
304 306 306 305 303 303 304 305 304 300 297 296 296 298 302 306 309 310 310 308 304 301 303 307 312 316 318 314 309 307 307 305 300 296 295 291 283 275 274 283 297 307 310 309 303 293 281 271 265 262 260 257 253 254 258 260 258 255 253 252 252 252 251 250 249 248 248 249 249 249 248 248 248 248 248 249 249 248 246 246 247 248 248 249 250 252 255
300 302 305 307 306 304 301 300 301 301 299 296 295 298 303 307 309 311 312 311 310 309 307 305 307 313 319 319 314 311 309 306 303 301 299 296 291 285 281 281 287 300 309 307 300 293 282 269 260 257 255 251 250 257 268 269 263 259 257 255 253 253 253 253 252 252 252 251 251 252 251 251 250 250 249 250 250 249 248 248 248 249 250 252 253 255 258